Time,TemperatureF,DewpointF,PressureIn,WindDirection,WindDirectionDegrees,WindSpeedMPH,WindSpeedGustMPH,Humidity,HourlyPrecipIn,Conditions,Clouds,dailyrainin,SoftwareType,DateUTC
2013-10-08 00:00:00,72.1,71.6,29.88,East,100,0.0,0.0,98,0.03,,,0.18,meteohub,2013-10-08 04:00:00,
2013-10-08 00:01:00,72.1,71.6,29.88,East,100,0.0,0.0,98,0.03,,,0.18,meteohub,2013-10-08 04:01:00,
2013-10-08 00:02:00,72.1,71.6,29.88,East,100,0.0,0.0,98,0.03,,,0.18,meteohub,2013-10-08 04:02:00,
2013-10-08 00:07:00,72.1,71.6,29.88,East,100,0.0,0.0,98,0.03,,,0.18,meteohub,2013-10-08 04:07:00,
2013-10-08 00:12:00,72.1,71.6,29.87,East,100,0.0,0.0,98,0.03,,,0.00,meteohub,2013-10-08 04:12:00,
2013-10-08 00:18:00,72.1,71.6,29.87,East,100,0.0,0.0,98,0.02,,,0.00,meteohub,2013-10-08 04:18:00,
2013-10-08 00:22:00,72.0,71.4,29.87,East,100,0.0,0.0,98,0.02,,,0.00,meteohub,2013-10-08 04:22:00,
2013-10-08 00:27:00,72.0,71.4,29.88,East,100,0.0,0.0,98,0.00,,,0.00,meteohub,2013-10-08 04:27:00,
2013-10-08 00:33:00,72.1,71.6,29.88,East,100,0.0,0.0,98,0.00,,,0.00,meteohub,2013-10-08 04:33:00,
2013-10-08 00:38:00,72.0,71.4,29.88,East,100,0.0,0.0,98,0.00,,,0.00,meteohub,2013-10-08 04:38:00,
2013-10-08 00:43:00,72.0,71.4,29.88,East,100,0.0,0.0,98,0.00,,,0.00,meteohub,2013-10-08 04:43:00,
2013-10-08 00:48:00,72.0,71.4,29.88,East,100,0.0,0.0,98,0.00,,,0.00,meteohub,2013-10-08 04:48:00,
2013-10-08 00:53:00,72.0,71.4,29.88,East,100,0.0,0.0,98,0.00,,,0.00,meteohub,2013-10-08 04:53:00,
2013-10-08 00:58:00,72.0,71.4,29.88,East,100,0.0,0.0,98,0.00,,,0.00,meteohub,2013-10-08 04:58:00,
2013-10-08 01:03:00,72.0,71.4,29.87,East,100,0.0,0.0,98,0.00,,,0.00,meteohub,2013-10-08 05:03:00,
2013-10-08 01:08:00,72.0,71.4,29.87,East,100,0.0,0.0,98,0.01,,,0.00,meteohub,2013-10-08 05:08:00,
2013-10-08 01:13:00,71.8,71.2,29.88,East,100,0.0,0.0,98,0.05,,,0.05,meteohub,2013-10-08 05:13:00,
2013-10-08 01:18:00,71.8,71.2,29.87,East,100,0.0,0.0,98,0.05,,,0.05,meteohub,2013-10-08 05:18:00,
2013-10-08 01:23:00,71.8,71.2,29.88,East,100,0.0,0.0,98,0.05,,,0.05,meteohub,2013-10-08 05:23:00,
2013-10-08 01:28:00,71.8,71.2,29.88,East,100,0.0,0.0,98,0.05,,,0.05,meteohub,2013-10-08 05:28:00,
2013-10-08 01:33:00,71.8,71.2,29.88,East,100,0.0,0.0,98,0.05,,,0.06,meteohub,2013-10-08 05:33:00,
2013-10-08 01:38:00,71.8,71.2,29.88,East,100,0.0,0.0,98,0.07,,,0.06,meteohub,2013-10-08 05:38:00,
2013-10-08 01:43:00,71.8,71.2,29.88,East,100,0.0,0.0,98,0.07,,,0.09,meteohub,2013-10-08 05:43:00,
2013-10-08 01:48:00,71.6,71.1,29.88,East,100,0.0,0.0,98,0.10,,,0.09,meteohub,2013-10-08 05:48:00,
2013-10-08 01:53:00,71.6,71.1,29.88,East,92,0.0,0.0,98,0.10,,,0.10,meteohub,2013-10-08 05:53:00,
2013-10-08 01:58:00,71.4,70.9,29.88,East,92,0.0,5.0,98,0.10,,,0.10,meteohub,2013-10-08 05:58:00,
2013-10-08 02:03:00,71.4,70.9,29.88,ENE,69,0.0,5.0,98,0.10,,,0.10,meteohub,2013-10-08 06:03:00,
2013-10-08 02:08:00,71.2,70.7,29.88,ENE,69,0.0,5.0,98,0.09,,,0.10,meteohub,2013-10-08 06:08:00,
2013-10-08 02:13:00,71.2,70.7,29.88,ENE,69,0.0,5.0,98,0.05,,,0.10,meteohub,2013-10-08 06:13:00,
2013-10-08 02:18:00,71.2,70.7,29.88,ENE,69,0.0,0.0,98,0.05,,,0.10,meteohub,2013-10-08 06:18:00,
2013-10-08 02:23:00,71.2,70.7,29.88,WSW,244,0.0,0.0,98,0.05,,,0.16,meteohub,2013-10-08 06:23:00,
2013-10-08 02:28:00,71.2,70.7,29.88,SW,224,0.0,2.0,98,0.13,,,0.16,meteohub,2013-10-08 06:28:00,
2013-10-08 02:33:00,71.2,70.7,29.88,SW,224,0.0,2.0,98,0.19,,,0.24,meteohub,2013-10-08 06:33:00,
2013-10-08 02:38:00,71.1,70.5,29.88,SW,224,0.0,2.0,98,0.19,,,0.24,meteohub,2013-10-08 06:38:00,
2013-10-08 02:43:00,71.1,70.5,29.88,East,91,0.0,2.0,98,0.21,,,0.29,meteohub,2013-10-08 06:43:00,
2013-10-08 02:48:00,71.1,70.5,29.88,East,91,0.0,0.0,98,0.21,,,0.29,meteohub,2013-10-08 06:48:00,
2013-10-08 02:53:00,71.1,70.5,29.88,East,91,0.0,0.0,98,0.22,,,0.32,meteohub,2013-10-08 06:53:00,
2013-10-08 02:58:00,71.1,70.5,29.88,East,91,0.0,0.0,98,0.22,,,0.32,meteohub,2013-10-08 06:58:00,
2013-10-08 03:05:00,71.1,70.5,29.88,East,91,0.0,0.0,98,0.23,,,0.32,meteohub,2013-10-08 07:05:00,
2013-10-08 03:10:00,71.1,70.5,29.88,East,91,0.0,0.0,98,0.23,,,0.32,meteohub,2013-10-08 07:10:00,
2013-10-08 03:15:00,71.1,70.5,29.88,East,91,0.0,0.0,98,0.23,,,0.33,meteohub,2013-10-08 07:15:00,
2013-10-08 03:20:00,71.1,70.5,29.88,East,91,0.0,0.0,98,0.23,,,0.33,meteohub,2013-10-08 07:20:00,
2013-10-08 03:25:00,70.9,70.3,29.88,East,91,0.0,0.0,98,0.16,,,0.33,meteohub,2013-10-08 07:25:00,
2013-10-08 03:30:00,70.9,70.3,29.88,East,91,0.0,0.0,98,0.16,,,0.33,meteohub,2013-10-08 07:30:00,
2013-10-08 03:35:00,70.9,70.3,29.87,East,91,0.0,0.0,98,0.09,,,0.35,meteohub,2013-10-08 07:35:00,
2013-10-08 03:40:00,70.9,70.3,29.87,East,94,2.0,0.0,98,0.09,,,0.35,meteohub,2013-10-08 07:40:00,
2013-10-08 03:45:00,70.5,70.0,29.87,ENE,74,5.0,6.0,98,0.07,,,0.37,meteohub,2013-10-08 07:45:00,
2013-10-08 03:50:00,70.5,70.0,29.86,East,91,7.0,7.0,98,0.07,,,0.37,meteohub,2013-10-08 07:50:00,
2013-10-08 03:55:00,70.5,70.0,29.86,ESE,114,4.0,11.0,98,0.06,,,0.38,meteohub,2013-10-08 07:55:00,
2013-10-08 04:00:00,70.5,70.0,29.86,East,89,6.0,11.0,98,0.06,,,0.38,meteohub,2013-10-08 08:00:00,
2013-10-08 04:05:00,70.5,70.0,29.86,East,79,5.0,12.0,98,0.05,,,0.38,meteohub,2013-10-08 08:05:00,
2013-10-08 04:10:00,70.5,70.0,29.86,East,91,11.0,12.0,98,0.05,,,0.38,meteohub,2013-10-08 08:10:00,
2013-10-08 04:15:00,70.5,70.0,29.85,East,94,8.0,13.0,98,0.06,,,0.38,meteohub,2013-10-08 08:15:00,
2013-10-08 04:20:00,70.7,70.2,29.85,East,88,6.0,13.0,98,0.06,,,0.38,meteohub,2013-10-08 08:20:00,
2013-10-08 04:25:00,70.7,70.2,29.85,East,85,5.0,14.0,98,0.05,,,0.39,meteohub,2013-10-08 08:25:00,
2013-10-08 04:30:00,70.5,70.0,29.86,East,82,7.0,14.0,98,0.05,,,0.39,meteohub,2013-10-08 08:30:00,
2013-10-08 04:35:00,70.5,70.0,29.86,North,5,3.0,12.0,98,0.04,,,0.39,meteohub,2013-10-08 08:35:00,
2013-10-08 04:40:00,70.5,70.0,29.87,West,261,0.0,12.0,98,0.04,,,0.39,meteohub,2013-10-08 08:40:00,
2013-10-08 04:45:00,70.5,70.0,29.88,WNW,303,0.0,11.0,98,0.01,,,0.39,meteohub,2013-10-08 08:45:00,
2013-10-08 04:50:00,70.5,70.0,29.88,WNW,303,0.0,11.0,98,0.01,,,0.39,meteohub,2013-10-08 08:50:00,
2013-10-08 04:55:00,70.5,70.0,29.89,WNW,303,0.0,11.0,98,0.01,,,0.39,meteohub,2013-10-08 08:55:00,
2013-10-08 05:00:00,70.5,70.0,29.90,East,87,0.0,5.0,98,0.01,,,0.39,meteohub,2013-10-08 09:00:00,
2013-10-08 05:05:00,70.3,69.8,29.90,East,87,0.0,5.0,98,0.01,,,0.39,meteohub,2013-10-08 09:05:00,
2013-10-08 05:10:00,70.3,69.8,29.90,East,87,0.0,2.0,98,0.01,,,0.39,meteohub,2013-10-08 09:10:00,
2013-10-08 05:15:00,70.2,69.6,29.90,East,87,0.0,2.0,98,0.00,,,0.39,meteohub,2013-10-08 09:15:00,
2013-10-08 05:20:00,69.8,69.3,29.91,ESE,105,1.0,1.0,98,0.00,,,0.39,meteohub,2013-10-08 09:20:00,
2013-10-08 05:25:00,69.4,68.9,29.91,NE,54,1.0,1.0,98,0.00,,,0.39,meteohub,2013-10-08 09:25:00,
2013-10-08 05:30:00,69.4,68.9,29.91,East,81,1.0,9.0,98,0.01,,,0.39,meteohub,2013-10-08 09:30:00,
2013-10-08 05:35:00,69.4,68.9,29.92,East,87,2.0,9.0,98,0.01,,,0.40,meteohub,2013-10-08 09:35:00,
2013-10-08 05:40:00,69.3,68.7,29.92,ESE,109,4.0,8.0,98,0.01,,,0.40,meteohub,2013-10-08 09:40:00,
2013-10-08 05:45:00,69.3,68.7,29.92,ENE,73,2.0,8.0,98,0.01,,,0.40,meteohub,2013-10-08 09:45:00,
2013-10-08 05:50:00,69.3,68.7,29.93,ENE,69,0.0,8.0,98,0.01,,,0.40,meteohub,2013-10-08 09:50:00,
2013-10-08 05:55:00,69.3,68.7,29.94,ENE,77,0.0,8.0,98,0.01,,,0.40,meteohub,2013-10-08 09:55:00,
2013-10-08 06:00:00,69.3,68.7,29.94,NE,53,0.0,7.0,98,0.01,,,0.40,meteohub,2013-10-08 10:00:00,
2013-10-08 06:05:00,69.3,68.7,29.94,NE,53,0.0,7.0,98,0.01,,,0.40,meteohub,2013-10-08 10:05:00,
2013-10-08 06:10:00,69.3,68.7,29.94,East,97,0.0,5.0,98,0.01,,,0.40,meteohub,2013-10-08 10:10:00,
2013-10-08 06:15:00,69.3,68.7,29.94,SSE,155,0.0,5.0,98,0.01,,,0.40,meteohub,2013-10-08 10:15:00,
2013-10-08 06:20:00,69.3,68.7,29.94,ENE,63,2.0,2.0,98,0.01,,,0.40,meteohub,2013-10-08 10:20:00,
2013-10-08 06:25:00,69.1,68.5,29.93,East,92,2.0,2.0,98,0.01,,,0.40,meteohub,2013-10-08 10:25:00,
2013-10-08 06:30:00,69.1,68.5,29.93,ENE,74,0.0,8.0,98,0.00,,,0.40,meteohub,2013-10-08 10:30:00,
2013-10-08 06:35:00,68.9,68.4,29.93,East,89,0.0,8.0,98,0.00,,,0.40,meteohub,2013-10-08 10:35:00,
2013-10-08 06:40:00,68.7,68.2,29.93,SE,126,0.0,8.0,98,0.00,,,0.44,meteohub,2013-10-08 10:40:00,
2013-10-08 06:45:00,68.5,68.0,29.92,East,91,0.0,8.0,98,0.06,,,0.44,meteohub,2013-10-08 10:45:00,
2013-10-08 06:50:00,67.6,67.1,29.93,NE,40,3.0,8.0,98,0.06,,,0.44,meteohub,2013-10-08 10:50:00,
2013-10-08 06:55:00,66.9,66.0,29.93,East,87,0.0,8.0,97,0.06,,,0.49,meteohub,2013-10-08 10:55:00,
2013-10-08 07:00:00,66.4,65.5,29.94,ESE,119,0.0,12.0,97,0.10,,,0.49,meteohub,2013-10-08 11:00:00,
2013-10-08 07:05:00,65.8,64.9,29.94,East,86,0.0,12.0,97,0.10,,,0.49,meteohub,2013-10-08 11:05:00,
2013-10-08 07:10:00,65.3,64.4,29.96,ENE,78,4.0,12.0,97,0.14,,,0.53,meteohub,2013-10-08 11:10:00,
2013-10-08 07:15:00,65.1,64.6,29.96,NE,51,4.0,11.0,98,0.14,,,0.53,meteohub,2013-10-08 11:15:00,
2013-10-08 07:20:00,64.9,64.4,29.96,ESE,107,0.0,11.0,98,0.14,,,0.54,meteohub,2013-10-08 11:20:00,
2013-10-08 07:25:00,64.8,64.2,29.96,NNE,15,0.0,11.0,98,0.14,,,0.54,meteohub,2013-10-08 11:25:00,
2013-10-08 07:30:00,64.2,63.3,29.96,NNE,15,0.0,7.0,97,0.13,,,0.54,meteohub,2013-10-08 11:30:00,
2013-10-08 07:35:00,64.0,63.5,29.96,SE,124,2.0,7.0,98,0.13,,,0.54,meteohub,2013-10-08 11:35:00,
2013-10-08 07:40:00,63.9,63.3,29.96,ENE,60,1.0,11.0,98,0.09,,,0.54,meteohub,2013-10-08 11:40:00,
2013-10-08 07:45:00,63.9,63.3,29.96,NE,39,1.0,11.0,98,0.09,,,0.54,meteohub,2013-10-08 11:45:00,
2013-10-08 07:50:00,63.9,63.3,29.97,ENE,65,0.0,11.0,98,0.05,,,0.54,meteohub,2013-10-08 11:50:00,
2013-10-08 07:55:00,63.7,63.1,29.97,NE,38,0.0,11.0,98,0.05,,,0.54,meteohub,2013-10-08 11:55:00,
2013-10-08 08:00:00,63.5,63.0,29.96,NE,38,0.0,6.0,98,0.03,,,0.54,meteohub,2013-10-08 12:00:00,
2013-10-08 08:05:00,63.3,62.8,29.96,NE,55,0.0,6.0,98,0.03,,,0.54,meteohub,2013-10-08 12:05:00,
2013-10-08 08:10:00,63.1,62.6,29.96,ENE,75,2.0,9.0,98,0.02,,,0.54,meteohub,2013-10-08 12:10:00,
2013-10-08 08:15:00,63.1,62.6,29.96,SE,125,0.0,9.0,98,0.02,,,0.54,meteohub,2013-10-08 12:15:00,
2013-10-08 08:20:00,63.0,62.4,29.97,ENE,76,0.0,12.0,98,0.01,,,0.55,meteohub,2013-10-08 12:20:00,
2013-10-08 08:25:00,63.0,62.4,29.98,East,84,3.0,12.0,98,0.01,,,0.55,meteohub,2013-10-08 12:25:00,
2013-10-08 08:30:00,63.0,62.4,29.98,East,79,0.0,12.0,98,0.01,,,0.55,meteohub,2013-10-08 12:30:00,
2013-10-08 08:35:00,63.0,62.4,29.99,East,96,4.0,12.0,98,0.01,,,0.55,meteohub,2013-10-08 12:35:00,
2013-10-08 08:40:00,62.8,62.2,29.99,NE,52,1.0,9.0,98,0.01,,,0.55,meteohub,2013-10-08 12:40:00,
2013-10-08 08:45:00,62.8,62.2,30.00,NE,34,0.0,9.0,98,0.01,,,0.55,meteohub,2013-10-08 12:45:00,
2013-10-08 08:50:00,62.6,62.1,30.00,ENE,74,3.0,9.0,98,0.01,,,0.55,meteohub,2013-10-08 12:50:00,
2013-10-08 08:55:00,62.4,61.9,30.00,East,79,2.0,9.0,98,0.01,,,0.55,meteohub,2013-10-08 12:55:00,
2013-10-08 09:00:00,62.1,61.5,30.00,ENE,74,1.0,9.0,98,0.01,,,0.55,meteohub,2013-10-08 13:00:00,
2013-10-08 09:05:00,61.9,61.0,30.00,East,82,3.0,9.0,97,0.01,,,0.55,meteohub,2013-10-08 13:05:00,
2013-10-08 09:10:00,61.7,60.8,30.01,ESE,123,5.0,14.0,97,0.00,,,0.55,meteohub,2013-10-08 13:10:00,
2013-10-08 09:15:00,61.5,60.6,30.01,SE,130,6.0,14.0,97,0.00,,,0.55,meteohub,2013-10-08 13:15:00,
2013-10-08 09:20:00,61.3,60.4,30.01,ENE,74,7.0,13.0,97,0.00,,,0.55,meteohub,2013-10-08 13:20:00,
2013-10-08 09:25:00,61.2,60.3,30.01,East,93,6.0,13.0,97,0.00,,,0.55,meteohub,2013-10-08 13:25:00,
2013-10-08 09:30:00,61.2,60.3,30.01,East,97,1.0,16.0,97,0.00,,,0.55,meteohub,2013-10-08 13:30:00,
2013-10-08 09:35:00,61.2,60.3,30.01,SSE,152,10.0,16.0,97,0.00,,,0.55,meteohub,2013-10-08 13:35:00,
2013-10-08 09:40:00,61.3,60.4,30.01,ENE,67,0.0,14.0,97,0.00,,,0.55,meteohub,2013-10-08 13:40:00,
2013-10-08 09:45:00,61.3,60.4,30.01,SW,233,0.0,14.0,97,0.00,,,0.55,meteohub,2013-10-08 13:45:00,
2013-10-08 09:50:00,61.3,60.4,30.02,SE,130,9.0,10.0,97,0.00,,,0.55,meteohub,2013-10-08 13:50:00,
2013-10-08 09:55:00,61.2,60.3,30.02,ENE,65,3.0,10.0,97,0.00,,,0.55,meteohub,2013-10-08 13:55:00,
2013-10-08 10:00:00,61.0,60.1,30.01,ESE,119,0.0,9.0,97,0.00,,,0.55,meteohub,2013-10-08 14:00:00,
2013-10-08 10:05:00,60.8,59.9,30.01,SE,130,6.0,9.0,97,0.00,,,0.55,meteohub,2013-10-08 14:05:00,
2013-10-08 10:10:00,60.6,59.7,30.02,ENE,64,0.0,11.0,97,0.00,,,0.55,meteohub,2013-10-08 14:10:00,
2013-10-08 10:15:00,60.6,59.7,30.02,East,98,0.0,11.0,97,0.00,,,0.55,meteohub,2013-10-08 14:15:00,
2013-10-08 10:20:00,60.6,59.7,30.02,ESE,103,2.0,11.0,97,0.00,,,0.55,meteohub,2013-10-08 14:20:00,
2013-10-08 10:25:00,60.8,59.9,30.02,ENE,69,3.0,11.0,97,0.00,,,0.55,meteohub,2013-10-08 14:25:00,
2013-10-08 10:30:00,60.8,59.9,30.02,East,88,2.0,7.0,97,0.00,,,0.55,meteohub,2013-10-08 14:30:00,
2013-10-08 10:35:00,60.8,59.7,30.02,NE,36,2.0,7.0,96,0.00,,,0.55,meteohub,2013-10-08 14:35:00,
2013-10-08 10:40:00,61.0,59.9,30.02,East,86,1.0,7.0,96,0.00,,,0.55,meteohub,2013-10-08 14:40:00,
2013-10-08 10:45:00,61.0,59.9,30.02,ESE,105,5.0,7.0,96,0.00,,,0.55,meteohub,2013-10-08 14:45:00,
2013-10-08 10:50:00,61.2,60.1,30.02,ENE,73,0.0,16.0,96,0.00,,,0.55,meteohub,2013-10-08 14:50:00,
2013-10-08 10:55:00,61.2,60.1,30.02,East,81,0.0,16.0,96,0.00,,,0.55,meteohub,2013-10-08 14:55:00,
2013-10-08 11:00:00,61.2,60.1,30.02,East,96,6.0,16.0,96,0.00,,,0.55,meteohub,2013-10-08 15:00:00,
2013-10-08 11:05:00,61.2,60.1,30.02,East,90,4.0,16.0,96,0.00,,,0.55,meteohub,2013-10-08 15:05:00,
2013-10-08 11:10:00,61.3,60.3,30.02,SE,146,12.0,15.0,96,0.00,,,0.55,meteohub,2013-10-08 15:10:00,
2013-10-08 11:15:00,61.3,59.9,30.03,East,79,4.0,15.0,95,0.00,,,0.55,meteohub,2013-10-08 15:15:00,
2013-10-08 11:20:00,61.5,60.1,30.02,ENE,76,3.0,14.0,95,0.00,,,0.55,meteohub,2013-10-08 15:20:00,
2013-10-08 11:25:00,61.5,60.1,30.03,ENE,70,2.0,14.0,95,0.00,,,0.55,meteohub,2013-10-08 15:25:00,
2013-10-08 11:30:00,61.5,60.1,30.03,East,79,3.0,8.0,95,0.00,,,0.55,meteohub,2013-10-08 15:30:00,
2013-10-08 11:35:00,61.7,60.3,30.03,ESE,103,1.0,8.0,95,0.00,,,0.55,meteohub,2013-10-08 15:35:00,
2013-10-08 11:40:00,61.9,60.4,30.03,ESE,119,6.0,12.0,95,0.00,,,0.55,meteohub,2013-10-08 15:40:00,
2013-10-08 11:45:00,61.9,60.4,30.03,East,84,5.0,12.0,95,0.00,,,0.55,meteohub,2013-10-08 15:45:00,
2013-10-08 11:50:00,61.9,60.4,30.03,East,90,6.0,12.0,95,0.00,,,0.55,meteohub,2013-10-08 15:50:00,
2013-10-08 11:55:00,61.9,60.1,30.03,SSW,195,2.0,12.0,94,0.00,,,0.55,meteohub,2013-10-08 15:55:00,
2013-10-08 12:00:00,62.1,60.3,30.03,NE,35,4.0,13.0,94,0.00,,,0.55,meteohub,2013-10-08 16:00:00,
2013-10-08 12:05:00,62.1,60.6,30.03,NE,48,3.0,13.0,95,0.00,,,0.55,meteohub,2013-10-08 16:05:00,
2013-10-08 12:10:00,62.1,60.3,30.03,East,92,4.0,9.0,94,0.00,,,0.55,meteohub,2013-10-08 16:10:00,
2013-10-08 12:15:00,62.1,60.3,30.04,ENE,59,0.0,9.0,94,0.00,,,0.55,meteohub,2013-10-08 16:15:00,
2013-10-08 12:20:00,62.1,60.3,30.04,ENE,75,3.0,9.0,94,0.00,,,0.55,meteohub,2013-10-08 16:20:00,
2013-10-08 12:25:00,62.2,60.4,30.04,East,83,5.0,13.0,94,0.00,,,0.55,meteohub,2013-10-08 16:25:00,
2013-10-08 12:30:00,62.2,60.8,30.04,ENE,64,2.0,13.0,95,0.00,,,0.55,meteohub,2013-10-08 16:30:00,
2013-10-08 12:35:00,62.1,60.3,30.04,ESE,111,2.0,6.0,94,0.00,,,0.55,meteohub,2013-10-08 16:35:00,
2013-10-08 12:40:00,62.2,60.8,30.03,ENE,70,1.0,6.0,95,0.00,,,0.55,meteohub,2013-10-08 16:40:00,
2013-10-08 12:45:00,62.1,60.3,30.03,ENE,59,0.0,6.0,94,0.00,,,0.55,meteohub,2013-10-08 16:45:00,
2013-10-08 12:50:00,62.1,60.6,30.04,ENE,74,3.0,9.0,95,0.00,,,0.55,meteohub,2013-10-08 16:50:00,
2013-10-08 12:55:00,62.2,60.8,30.04,ESE,121,2.0,9.0,95,0.00,,,0.55,meteohub,2013-10-08 16:55:00,
2013-10-08 13:00:00,62.1,60.3,30.03,East,88,1.0,6.0,94,0.00,,,0.55,meteohub,2013-10-08 17:00:00,
2013-10-08 13:05:00,62.1,60.6,30.03,ENE,58,2.0,6.0,95,0.00,,,0.55,meteohub,2013-10-08 17:05:00,
2013-10-08 13:10:00,62.1,60.6,30.03,ENE,75,0.0,6.0,95,0.00,,,0.55,meteohub,2013-10-08 17:10:00,
2013-10-08 13:16:00,61.9,60.4,30.02,NE,55,1.0,11.0,95,0.00,,,0.55,meteohub,2013-10-08 17:16:00,
2013-10-08 13:21:00,61.9,60.4,30.02,SW,228,0.0,11.0,95,0.00,,,0.55,meteohub,2013-10-08 17:21:00,
2013-10-08 13:26:00,61.5,60.1,30.02,NE,47,0.0,11.0,95,0.00,,,0.55,meteohub,2013-10-08 17:26:00,
2013-10-08 13:31:00,61.5,60.1,30.02,East,100,6.0,11.0,95,0.00,,,0.55,meteohub,2013-10-08 17:31:00,
2013-10-08 13:36:00,61.3,59.9,30.02,ENE,57,0.0,8.0,95,0.00,,,0.55,meteohub,2013-10-08 17:36:00,
2013-10-08 13:41:00,61.3,59.9,30.02,ENE,57,0.0,8.0,95,0.00,,,0.55,meteohub,2013-10-08 17:41:00,
2013-10-08 13:46:00,61.3,59.9,30.02,East,88,0.0,6.0,95,0.00,,,0.55,meteohub,2013-10-08 17:46:00,
2013-10-08 13:51:00,61.3,60.3,30.02,ENE,75,0.0,6.0,96,0.00,,,0.55,meteohub,2013-10-08 17:51:00,
2013-10-08 13:56:00,61.2,60.1,30.02,SSE,161,0.0,8.0,96,0.01,,,0.55,meteohub,2013-10-08 17:56:00,
2013-10-08 14:01:00,61.2,60.1,30.01,East,101,0.0,8.0,96,0.01,,,0.55,meteohub,2013-10-08 18:01:00,
2013-10-08 14:06:00,61.0,59.9,30.01,East,101,0.0,8.0,96,0.01,,,0.56,meteohub,2013-10-08 18:06:00,
2013-10-08 14:11:00,61.0,59.9,30.01,ENE,76,0.0,5.0,96,0.01,,,0.56,meteohub,2013-10-08 18:11:00,
2013-10-08 14:16:00,60.8,59.7,30.01,ESE,115,0.0,5.0,96,0.01,,,0.56,meteohub,2013-10-08 18:16:00,
2013-10-08 14:21:00,60.6,59.5,30.01,East,84,0.0,5.0,96,0.01,,,0.56,meteohub,2013-10-08 18:21:00,
2013-10-08 14:26:00,60.4,59.4,30.01,ENE,62,1.0,9.0,96,0.02,,,0.57,meteohub,2013-10-08 18:26:00,
2013-10-08 14:31:00,60.4,59.4,30.02,East,88,2.0,9.0,96,0.02,,,0.57,meteohub,2013-10-08 18:31:00,
2013-10-08 14:36:00,60.3,59.2,30.01,ENE,71,0.0,5.0,96,0.02,,,0.57,meteohub,2013-10-08 18:36:00,
2013-10-08 14:41:00,60.3,59.4,30.02,NE,47,4.0,5.0,97,0.02,,,0.58,meteohub,2013-10-08 18:41:00,
2013-10-08 14:46:00,60.1,59.2,30.02,East,92,0.0,5.0,97,0.03,,,0.58,meteohub,2013-10-08 18:46:00,
2013-10-08 14:51:00,60.1,59.2,30.02,ENE,69,0.0,5.0,97,0.03,,,0.58,meteohub,2013-10-08 18:51:00,
2013-10-08 14:56:00,59.9,59.0,30.02,East,80,0.0,5.0,97,0.02,,,0.58,meteohub,2013-10-08 18:56:00,
2013-10-08 15:01:00,60.1,59.2,30.02,ESE,112,4.0,5.0,97,0.02,,,0.58,meteohub,2013-10-08 19:01:00,
2013-10-08 15:06:00,59.9,59.0,30.02,East,98,0.0,5.0,97,0.03,,,0.58,meteohub,2013-10-08 19:06:00,
2013-10-08 15:11:00,59.9,59.0,30.02,NE,51,0.0,5.0,97,0.03,,,0.59,meteohub,2013-10-08 19:11:00,
2013-10-08 15:16:00,59.7,58.8,30.02,ESE,105,0.0,5.0,97,0.03,,,0.59,meteohub,2013-10-08 19:16:00,
2013-10-08 15:21:00,59.7,58.8,30.02,ESE,109,0.0,5.0,97,0.03,,,0.60,meteohub,2013-10-08 19:21:00,
2013-10-08 15:26:00,59.7,58.8,30.02,ENE,69,0.0,5.0,97,0.03,,,0.60,meteohub,2013-10-08 19:26:00,
2013-10-08 15:31:00,59.7,58.8,30.02,NE,51,0.0,5.0,97,0.03,,,0.60,meteohub,2013-10-08 19:31:00,
2013-10-08 15:36:00,59.7,58.8,30.01,ENE,75,0.0,5.0,97,0.03,,,0.60,meteohub,2013-10-08 19:36:00,
2013-10-08 15:41:00,59.9,59.0,30.01,ENE,75,0.0,7.0,97,0.03,,,0.60,meteohub,2013-10-08 19:41:00,
2013-10-08 15:46:00,59.7,58.8,30.02,ENE,61,0.0,7.0,97,0.03,,,0.60,meteohub,2013-10-08 19:46:00,
2013-10-08 15:51:00,59.5,58.6,30.02,ENE,74,0.0,7.0,97,0.03,,,0.61,meteohub,2013-10-08 19:51:00,
2013-10-08 15:56:00,59.5,58.6,30.02,East,87,0.0,5.0,97,0.04,,,0.61,meteohub,2013-10-08 19:56:00,
2013-10-08 16:01:00,59.5,59.0,30.02,ESE,113,1.0,5.0,98,0.04,,,0.61,meteohub,2013-10-08 20:01:00,
2013-10-08 16:06:00,59.5,59.0,30.02,NE,51,0.0,5.0,98,0.04,,,0.61,meteohub,2013-10-08 20:06:00,
2013-10-08 16:11:00,59.5,59.0,30.02,ESE,108,0.0,5.0,98,0.04,,,0.63,meteohub,2013-10-08 20:11:00,
2013-10-08 16:16:00,59.5,59.0,30.03,ESE,105,4.0,4.0,98,0.04,,,0.63,meteohub,2013-10-08 20:16:00,
2013-10-08 16:21:00,59.4,58.5,30.02,NE,55,0.0,4.0,97,0.04,,,0.63,meteohub,2013-10-08 20:21:00,
2013-10-08 16:26:00,59.4,58.5,30.02,ENE,66,0.0,4.0,97,0.04,,,0.63,meteohub,2013-10-08 20:26:00,
2013-10-08 16:31:00,59.4,58.5,30.02,ESE,106,0.0,4.0,97,0.04,,,0.65,meteohub,2013-10-08 20:31:00,
2013-10-08 16:36:00,59.4,58.5,30.02,ENE,65,2.0,4.0,97,0.06,,,0.65,meteohub,2013-10-08 20:36:00,
2013-10-08 16:41:00,59.2,58.6,30.02,ESE,118,0.0,4.0,98,0.06,,,0.65,meteohub,2013-10-08 20:41:00,
2013-10-08 16:46:00,59.2,58.6,30.02,ESE,104,0.0,4.0,98,0.06,,,0.65,meteohub,2013-10-08 20:46:00,
2013-10-08 16:51:00,59.2,58.6,30.01,SSE,147,0.0,4.0,98,0.06,,,0.68,meteohub,2013-10-08 20:51:00,
2013-10-08 16:56:00,59.2,58.6,30.01,ENE,76,0.0,8.0,98,0.07,,,0.68,meteohub,2013-10-08 20:56:00,
2013-10-08 17:01:00,59.2,58.6,30.01,ESE,115,0.0,8.0,98,0.07,,,0.68,meteohub,2013-10-08 21:01:00,
2013-10-08 17:06:00,59.0,58.5,30.01,East,85,0.0,8.0,98,0.07,,,0.68,meteohub,2013-10-08 21:06:00,
2013-10-08 17:11:00,58.8,58.3,30.01,East,100,2.0,8.0,98,0.07,,,0.72,meteohub,2013-10-08 21:11:00,
2013-10-08 17:16:00,58.8,58.3,30.01,ENE,70,0.0,11.0,98,0.19,,,0.72,meteohub,2013-10-08 21:16:00,
2013-10-08 17:21:00,58.8,58.3,30.01,ESE,113,2.0,11.0,98,0.19,,,0.72,meteohub,2013-10-08 21:21:00,
2013-10-08 17:26:00,58.8,58.3,30.01,ENE,76,0.0,11.0,98,0.19,,,0.72,meteohub,2013-10-08 21:26:00,
2013-10-08 17:31:00,58.8,58.3,30.01,NE,52,3.0,11.0,98,0.19,,,0.88,meteohub,2013-10-08 21:31:00,
2013-10-08 17:36:00,59.0,58.5,30.00,East,96,2.0,7.0,98,0.23,,,0.88,meteohub,2013-10-08 21:36:00,
2013-10-08 17:41:00,59.0,58.5,30.00,East,90,0.0,7.0,98,0.23,,,0.88,meteohub,2013-10-08 21:41:00,
2013-10-08 17:46:00,59.0,58.5,30.00,East,82,2.0,7.0,98,0.23,,,0.88,meteohub,2013-10-08 21:46:00,
2013-10-08 17:51:00,59.0,58.5,30.00,ENE,73,1.0,7.0,98,0.23,,,0.90,meteohub,2013-10-08 21:51:00,
2013-10-08 17:56:00,59.2,58.6,30.00,ENE,65,3.0,11.0,98,0.21,,,0.90,meteohub,2013-10-08 21:56:00,
2013-10-08 18:01:00,59.2,58.6,30.00,ENE,70,2.0,11.0,98,0.21,,,0.90,meteohub,2013-10-08 22:01:00,
2013-10-08 18:06:00,59.2,58.6,30.00,ENE,74,4.0,11.0,98,0.21,,,0.90,meteohub,2013-10-08 22:06:00,
2013-10-08 18:11:00,59.2,58.6,30.01,East,101,5.0,11.0,98,0.21,,,0.91,meteohub,2013-10-08 22:11:00,
2013-10-08 18:16:00,59.4,58.8,30.01,NE,54,0.0,11.0,98,0.09,,,0.91,meteohub,2013-10-08 22:16:00,
2013-10-08 18:21:00,59.4,58.8,30.02,South,184,0.0,11.0,98,0.09,,,0.91,meteohub,2013-10-08 22:21:00,
2013-10-08 18:26:00,59.4,58.8,30.02,ESE,112,0.0,11.0,98,0.09,,,0.91,meteohub,2013-10-08 22:26:00,
2013-10-08 18:31:00,59.4,58.8,30.02,East,81,2.0,11.0,98,0.09,,,0.92,meteohub,2013-10-08 22:31:00,
2013-10-08 18:36:00,59.4,58.8,30.02,ENE,67,3.0,11.0,98,0.04,,,0.92,meteohub,2013-10-08 22:36:00,
2013-10-08 18:41:00,59.5,59.0,30.03,NE,51,0.0,11.0,98,0.04,,,0.93,meteohub,2013-10-08 22:41:00,
2013-10-08 18:46:00,59.5,59.0,30.02,ENE,75,2.0,8.0,98,0.03,,,0.93,meteohub,2013-10-08 22:46:00,
2013-10-08 18:51:00,59.5,59.0,30.03,ESE,113,0.0,6.0,98,0.05,,,0.95,meteohub,2013-10-08 22:51:00,
2013-10-08 18:56:00,59.5,59.0,30.03,East,84,0.0,4.0,98,0.05,,,0.95,meteohub,2013-10-08 22:56:00,
2013-10-08 19:01:00,59.5,59.0,30.02,SSE,157,0.0,4.0,98,0.05,,,0.96,meteohub,2013-10-08 23:01:00,
2013-10-08 19:06:00,59.5,59.0,30.02,NNW,342,0.0,3.0,98,0.06,,,0.97,meteohub,2013-10-08 23:06:00,
2013-10-08 19:12:00,59.4,58.8,30.02,NNW,342,0.0,3.0,98,0.07,,,0.98,meteohub,2013-10-08 23:12:00,
2013-10-08 19:17:00,59.4,58.8,30.02,NNW,342,0.0,3.0,98,0.07,,,0.99,meteohub,2013-10-08 23:17:00,
2013-10-08 19:22:00,59.4,58.8,30.02,NNW,342,0.0,2.0,98,0.07,,,0.99,meteohub,2013-10-08 23:22:00,
2013-10-08 19:27:00,59.2,58.6,30.02,East,94,1.0,2.0,98,0.08,,,1.00,meteohub,2013-10-08 23:27:00,
2013-10-08 19:32:00,59.2,58.6,30.02,NNW,334,0.0,4.0,98,0.08,,,1.00,meteohub,2013-10-08 23:32:00,
2013-10-08 19:37:00,59.2,58.6,30.02,NNW,334,0.0,4.0,98,0.07,,,1.00,meteohub,2013-10-08 23:37:00,
2013-10-08 19:42:00,59.2,58.6,30.02,NNW,334,0.0,4.0,98,0.07,,,1.00,meteohub,2013-10-08 23:42:00,
2013-10-08 19:47:00,59.0,58.5,30.02,NNW,334,0.0,0.0,98,0.07,,,1.01,meteohub,2013-10-08 23:47:00,
2013-10-08 19:52:00,59.0,58.5,30.02,SSE,149,0.0,0.0,98,0.06,,,1.01,meteohub,2013-10-08 23:52:00,
2013-10-08 19:57:00,58.8,58.3,30.01,ESE,108,0.0,0.0,98,0.05,,,1.01,meteohub,2013-10-08 23:57:00,
2013-10-08 20:02:00,58.8,58.3,30.02,ESE,108,0.0,0.0,98,0.05,,,1.01,meteohub,2013-10-09 00:02:00,
2013-10-08 20:07:00,58.8,58.3,30.03,ENE,57,0.0,3.0,98,0.05,,,1.02,meteohub,2013-10-09 00:07:00,
2013-10-08 20:12:00,58.6,58.1,30.04,ESE,113,0.0,4.0,98,0.04,,,1.02,meteohub,2013-10-09 00:12:00,
2013-10-08 20:17:00,58.6,58.1,30.04,NE,48,0.0,4.0,98,0.03,,,1.02,meteohub,2013-10-09 00:17:00,
2013-10-08 20:22:00,58.6,58.1,30.04,South,184,1.0,5.0,98,0.03,,,1.02,meteohub,2013-10-09 00:22:00,
2013-10-08 20:27:00,58.6,58.1,30.04,ENE,73,0.0,7.0,98,0.02,,,1.02,meteohub,2013-10-09 00:27:00,
2013-10-08 20:32:00,58.6,58.1,30.04,East,89,0.0,7.0,98,0.02,,,1.02,meteohub,2013-10-09 00:32:00,
2013-10-08 20:37:00,58.6,58.1,30.05,SE,144,0.0,7.0,98,0.03,,,1.03,meteohub,2013-10-09 00:37:00,
2013-10-08 20:42:00,58.6,58.1,30.05,SE,144,0.0,6.0,98,0.03,,,1.03,meteohub,2013-10-09 00:42:00,
2013-10-08 20:47:00,58.6,58.1,30.05,SE,144,0.0,0.0,98,0.02,,,1.03,meteohub,2013-10-09 00:47:00,
2013-10-08 20:52:00,58.6,58.1,30.05,East,86,0.0,0.0,98,0.02,,,1.03,meteohub,2013-10-09 00:52:00,
2013-10-08 20:57:00,58.6,58.1,30.06,East,86,0.0,1.0,98,0.02,,,1.03,meteohub,2013-10-09 00:57:00,
2013-10-08 21:02:00,58.5,57.9,30.05,East,86,0.0,1.0,98,0.02,,,1.03,meteohub,2013-10-09 01:02:00,
2013-10-08 21:07:00,58.5,57.9,30.05,East,88,0.0,2.0,98,0.01,,,1.03,meteohub,2013-10-09 01:07:00,
2013-10-08 21:12:00,58.5,57.9,30.05,East,92,0.0,2.0,98,0.01,,,1.03,meteohub,2013-10-09 01:12:00,
2013-10-08 21:17:00,58.5,57.9,30.05,East,94,1.0,2.0,98,0.01,,,1.03,meteohub,2013-10-09 01:17:00,
2013-10-08 21:22:00,58.5,57.9,30.05,ENE,77,2.0,2.0,98,0.01,,,1.03,meteohub,2013-10-09 01:22:00,
2013-10-08 21:27:00,58.5,57.9,30.05,SW,232,0.0,4.0,98,0.01,,,1.03,meteohub,2013-10-09 01:27:00,
2013-10-08 21:32:00,58.5,57.9,30.05,ENE,70,1.0,5.0,98,0.01,,,1.03,meteohub,2013-10-09 01:32:00,
2013-10-08 21:37:00,58.5,57.9,30.05,SE,124,0.0,5.0,98,0.01,,,1.04,meteohub,2013-10-09 01:37:00,
2013-10-08 21:42:00,58.3,57.7,30.05,SE,146,0.0,5.0,98,0.02,,,1.05,meteohub,2013-10-09 01:42:00,
2013-10-08 21:47:00,58.3,57.7,30.05,SE,146,0.0,4.0,98,0.02,,,1.05,meteohub,2013-10-09 01:47:00,
2013-10-08 21:52:00,58.3,57.7,30.05,SE,146,0.0,4.0,98,0.03,,,1.06,meteohub,2013-10-09 01:52:00,
2013-10-08 21:57:00,58.3,57.7,30.05,East,86,0.0,2.0,98,0.03,,,1.06,meteohub,2013-10-09 01:57:00,
2013-10-08 22:02:00,58.3,57.7,30.06,NE,38,0.0,2.0,98,0.03,,,1.06,meteohub,2013-10-09 02:02:00,
2013-10-08 22:07:00,58.3,57.7,30.06,SSE,159,0.0,2.0,98,0.04,,,1.07,meteohub,2013-10-09 02:07:00,
2013-10-08 22:12:00,58.1,57.6,30.06,East,92,0.0,0.0,98,0.04,,,1.07,meteohub,2013-10-09 02:12:00,
2013-10-08 22:17:00,58.1,57.6,30.07,East,92,0.0,0.0,98,0.04,,,1.07,meteohub,2013-10-09 02:17:00,
2013-10-08 22:22:00,58.1,57.6,30.06,ESE,121,0.0,0.0,98,0.04,,,1.07,meteohub,2013-10-09 02:22:00,
2013-10-08 22:27:00,58.1,57.6,30.06,WSW,252,0.0,0.0,98,0.04,,,1.07,meteohub,2013-10-09 02:27:00,
2013-10-08 22:32:00,58.1,57.6,30.05,WNW,286,0.0,0.0,98,0.05,,,1.08,meteohub,2013-10-09 02:32:00,
2013-10-08 22:37:00,58.1,57.6,30.05,WNW,282,0.0,5.0,98,0.05,,,1.09,meteohub,2013-10-09 02:37:00,
2013-10-08 22:42:00,57.9,57.4,30.05,WNW,282,0.0,5.0,98,0.05,,,1.10,meteohub,2013-10-09 02:42:00,
2013-10-08 22:47:00,57.9,57.4,30.05,WNW,282,0.0,5.0,98,0.05,,,1.10,meteohub,2013-10-09 02:47:00,
2013-10-08 22:52:00,57.9,57.4,30.05,WNW,282,0.0,2.0,98,0.04,,,1.10,meteohub,2013-10-09 02:52:00,
2013-10-08 22:57:00,57.9,57.4,30.05,WNW,282,0.0,2.0,98,0.04,,,1.10,meteohub,2013-10-09 02:57:00,
2013-10-08 23:02:00,57.9,57.4,30.05,WNW,282,0.0,0.0,98,0.04,,,1.10,meteohub,2013-10-09 03:02:00,
2013-10-08 23:07:00,57.9,57.4,30.05,WNW,282,0.0,0.0,98,0.04,,,1.10,meteohub,2013-10-09 03:07:00,
2013-10-08 23:12:00,57.9,57.4,30.05,NNW,342,0.0,5.0,98,0.04,,,1.11,meteohub,2013-10-09 03:12:00,
2013-10-08 23:17:00,57.9,57.4,30.05,ENE,71,0.0,5.0,98,0.04,,,1.11,meteohub,2013-10-09 03:17:00,
2013-10-08 23:22:00,57.9,57.4,30.05,ENE,71,0.0,5.0,98,0.05,,,1.12,meteohub,2013-10-09 03:22:00,
2013-10-08 23:27:00,57.9,57.6,30.04,ENE,71,0.0,4.0,99,0.05,,,1.12,meteohub,2013-10-09 03:27:00,
2013-10-08 23:32:00,57.9,57.6,30.04,ENE,71,0.0,0.0,99,0.04,,,1.12,meteohub,2013-10-09 03:32:00,
2013-10-08 23:37:00,57.9,57.6,30.04,ENE,71,0.0,0.0,99,0.03,,,1.12,meteohub,2013-10-09 03:37:00,
2013-10-08 23:42:00,57.9,57.6,30.04,ESE,120,0.0,2.0,99,0.03,,,1.13,meteohub,2013-10-09 03:42:00,
2013-10-08 23:47:00,57.9,57.6,30.04,NW,320,0.0,5.0,99,0.03,,,1.13,meteohub,2013-10-09 03:47:00,
2013-10-08 23:52:00,57.9,57.6,30.04,SE,125,0.0,5.0,99,0.03,,,1.13,meteohub,2013-10-09 03:52:00,
2013-10-08 23:57:00,58.1,57.7,30.04,West,261,1.0,5.0,99,0.03,,,1.13,meteohub,2013-10-09 03:57:00,